TimeEDT,TemperatureF,Dew PointF,Humidity,Sea Level PressureIn,VisibilityMPH,Wind Direction,Wind SpeedMPH,Gust SpeedMPH,PrecipitationIn,Events,Conditions,WindDirDegrees,DateUTC
12:53 AM,36.0,24.1,62,30.44,10.0,ENE,6.9,-,N/A,,Clear,60,2013-04-21 04:53:00
1:53 AM,35.1,21.9,59,30.45,10.0,ENE,5.8,-,N/A,,Clear,70,2013-04-21 05:53:00
2:53 AM,32.0,23.0,69,30.46,10.0,East,5.8,-,N/A,,Clear,100,2013-04-21 06:53:00
3:53 AM,32.0,23.0,69,30.46,10.0,East,5.8,-,N/A,,Clear,90,2013-04-21 07:53:00
4:53 AM,30.9,23.0,72,30.47,10.0,East,5.8,-,N/A,,Clear,100,2013-04-21 08:53:00
5:53 AM,30.9,23.0,72,30.49,10.0,ESE,3.5,-,N/A,,Clear,110,2013-04-21 09:53:00
6:53 AM,30.9,21.9,69,30.51,10.0,ENE,4.6,-,N/A,,Clear,60,2013-04-21 10:53:00
7:53 AM,33.1,23.0,66,30.54,10.0,East,8.1,-,N/A,,Clear,90,2013-04-21 11:53:00
8:53 AM,35.1,24.1,64,30.55,10.0,ESE,10.4,-,N/A,,Clear,110,2013-04-21 12:53:00
9:53 AM,39.0,24.1,55,30.55,10.0,ESE,11.5,-,N/A,,Clear,110,2013-04-21 13:53:00
10:53 AM,42.1,23.0,47,30.55,10.0,ESE,10.4,-,N/A,,Clear,110,2013-04-21 14:53:00
11:53 AM,44.1,23.0,43,30.55,10.0,SE,6.9,-,N/A,,Clear,130,2013-04-21 15:53:00
12:53 PM,46.9,26.1,44,30.53,10.0,East,12.7,-,N/A,,Clear,90,2013-04-21 16:53:00
1:53 PM,48.9,28.0,44,30.51,10.0,East,10.4,17.3,N/A,,Clear,100,2013-04-21 17:53:00
2:53 PM,50.0,27.0,41,30.48,10.0,East,11.5,-,N/A,,Clear,100,2013-04-21 18:53:00
3:53 PM,51.1,28.0,41,30.45,10.0,East,9.2,18.4,N/A,,Clear,100,2013-04-21 19:53:00
4:53 PM,52.0,28.9,41,30.42,10.0,East,13.8,-,N/A,,Clear,90,2013-04-21 20:53:00
5:53 PM,53.1,30.0,41,30.41,10.0,East,10.4,-,N/A,,Clear,100,2013-04-21 21:53:00
6:53 PM,52.0,30.0,43,30.41,10.0,East,12.7,-,N/A,,Clear,90,2013-04-21 22:53:00
7:53 PM,50.0,30.0,46,30.40,10.0,East,11.5,-,N/A,,Clear,90,2013-04-21 23:53:00
8:53 PM,46.0,32.0,58,30.41,10.0,East,6.9,-,N/A,,Clear,90,2013-04-22 00:53:00
9:53 PM,44.1,30.9,60,30.42,10.0,East,6.9,-,N/A,,Clear,80,2013-04-22 01:53:00
10:53 PM,42.1,33.1,70,30.41,10.0,East,6.9,-,N/A,,Clear,90,2013-04-22 02:53:00
11:53 PM,41.0,33.1,73,30.40,10.0,ESE,6.9,-,N/A,,Clear,110,2013-04-22 03:53:00